Starlink 32094

operational
NORAD ID: 59696 Int'l Des: 2024-086 Owner: SPXS Country: US Constellation: starlink
LEOCIRCULAR

关于 Starlink 32094

正在加载描述...

实时位置

正在加载3D地球...

即将过境

高度历史

Altitude vs Time

uPlot chart will show altitude changes over time

两行轨道根数

1 59696U 24086Q 25303.73445250 .00002756 00000-0 10963-3 0 9990
2 59696 43.0029 74.1176 0002872 265.8863 94.1660 15.27580389 84239
Epoch: Oct 30, 2025 • Age: 8 hours

当前状态

高度 482.7 km
速度 7.63 km/s
星下点 12.54°N, 23.05°E
发射日期 May 8, 2024
运行时间 1.4 years
类型 internet

技术详情

分类 Payload
质量 730.00 kg
干质量 700.00 kg
总质量 730.00 kg
长度 0.30 m
直径 4.10 m
跨度 29.00 m
形状 Box + pan
制造商 SPXS
平台类型 Starlink V2M
阶段状态 In Orbit
所有者/国家 SPXS/US

大型星座

Loading constellations...